Location: Camaret
(48.2753°N, 4.5961°W)
Time: 04:15:11
(UTC+00:00)

Cosmos 1315 Rocket - Pass Details

Date: 29 October 2020
Orbit: 530 x 567 km, 81.2° (Epoch: 01 December)

Event Time Altitude Azimuth Distance (km) Brightness Sun altitude
Rises 19:16:04 0° 202° (SSW) 2,681 6.6 -22.5°
Reaches altitude 10° 19:18:14 10° 207° (SSW) 1,800 5.7 -22.9°
Maximum altitude 19:22:07 53° 285° (WNW) 674 3.5 -23.5°
Drops below altitude 10° 19:26:05 10° 3° (N) 1,837 5.5 -24.2°
Enters shadow 19:27:23 - 7° (N) 2,359 6.0 -24.4°
